Time,TemperatureF,DewpointF,PressureIn,WindDirection,WindDirectionDegrees,WindSpeedMPH,WindSpeedGustMPH,Humidity,HourlyPrecipIn,Conditions,Clouds,dailyrainin,SoftwareType,DateUTC
2013-10-22 00:13:00,54.0,46.0,29.77,NNW,346,1.0,6.0,75,0.00,,,0.00,,2013-10-22 05:13:00,
2013-10-22 00:22:00,54.0,47.0,29.77,North,360,0.0,7.0,76,0.00,,,0.00,,2013-10-22 05:22:00,
2013-10-22 00:43:00,54.0,47.0,29.78,NNW,331,0.0,4.0,76,0.00,,,0.00,,2013-10-22 05:43:00,
2013-10-22 00:52:00,53.0,46.0,29.78,NNW,342,0.0,4.0,77,0.00,,,0.00,,2013-10-22 05:52:00,
2013-10-22 01:12:00,53.0,46.0,29.78,NNW,342,0.0,1.0,77,0.00,,,0.00,,2013-10-22 06:12:00,
2013-10-22 01:22:00,52.0,45.0,29.78,NNW,342,0.0,0.0,78,0.00,,,0.00,,2013-10-22 06:22:00,
2013-10-22 01:42:00,52.0,46.0,29.78,NNW,342,0.0,0.0,80,0.00,,,0.00,,2013-10-22 06:42:00,
2013-10-22 01:53:00,52.0,46.0,29.78,NNW,342,0.0,1.0,81,0.00,,,0.00,,2013-10-22 06:53:00,
2013-10-22 02:12:00,51.0,46.0,29.78,NNW,342,0.0,1.0,82,0.00,,,0.00,,2013-10-22 07:12:00,
2013-10-22 02:22:00,51.0,46.0,29.78,NNW,342,0.0,2.0,83,0.00,,,0.00,,2013-10-22 07:22:00,
2013-10-22 02:42:00,51.0,46.0,29.79,NNW,342,0.0,2.0,84,0.00,,,0.00,,2013-10-22 07:42:00,
2013-10-22 02:52:00,51.0,46.0,29.79,NNW,343,0.0,4.0,84,0.00,,,0.00,,2013-10-22 07:52:00,
2013-10-22 03:12:00,51.0,47.0,29.80,NNW,332,0.0,1.0,85,0.00,,,0.00,,2013-10-22 08:12:00,
2013-10-22 03:22:00,50.0,46.0,29.80,NW,321,0.0,1.0,85,0.00,,,0.00,,2013-10-22 08:22:00,
2013-10-22 03:42:00,50.0,46.0,29.79,NNW,347,0.0,2.0,85,0.00,,,0.00,,2013-10-22 08:42:00,
2013-10-22 03:52:00,49.0,45.0,29.79,NW,304,0.0,3.0,85,0.00,,,0.00,,2013-10-22 08:52:00,
2013-10-22 04:11:00,49.0,45.0,29.79,NW,304,0.0,2.0,85,0.00,,,0.00,,2013-10-22 09:11:00,
2013-10-22 04:22:00,49.0,45.0,29.78,NW,304,0.0,1.0,85,0.00,,,0.00,,2013-10-22 09:22:00,
2013-10-22 04:43:00,48.0,44.0,29.78,NW,304,0.0,1.0,85,0.00,,,0.00,,2013-10-22 09:43:00,
2013-10-22 04:54:00,47.0,43.0,29.78,NW,304,0.0,0.0,85,0.00,,,0.00,,2013-10-22 09:54:00,
2013-10-22 05:13:00,47.0,43.0,29.78,WNW,295,0.0,3.0,87,0.00,,,0.00,,2013-10-22 10:13:00,
2013-10-22 05:23:00,46.0,42.0,29.78,WNW,290,0.0,3.0,87,0.00,,,0.00,,2013-10-22 10:23:00,
2013-10-22 05:43:00,46.0,42.0,29.77,WNW,289,0.0,3.0,87,0.00,,,0.00,,2013-10-22 10:43:00,
2013-10-22 05:53:00,46.0,42.0,29.78,WNW,288,0.0,3.0,87,0.00,,,0.00,,2013-10-22 10:53:00,
2013-10-22 06:12:00,46.0,42.0,29.78,West,271,1.0,2.0,87,0.00,,,0.00,,2013-10-22 11:12:00,
2013-10-22 06:22:00,46.0,42.0,29.78,West,271,0.0,2.0,87,0.00,,,0.00,,2013-10-22 11:22:00,
2013-10-22 06:42:00,45.0,41.0,29.78,West,271,0.0,2.0,87,0.00,,,0.00,,2013-10-22 11:42:00,
2013-10-22 06:53:00,45.0,41.0,29.78,West,271,0.0,2.0,87,0.00,,,0.00,,2013-10-22 11:53:00,
2013-10-22 07:11:00,45.0,41.0,29.79,West,271,0.0,2.0,87,0.00,,,0.00,,2013-10-22 12:11:00,
2013-10-22 07:22:00,45.0,41.0,29.79,West,271,1.0,2.0,87,0.00,,,0.00,,2013-10-22 12:22:00,
2013-10-22 07:42:00,45.0,41.0,29.79,West,271,0.0,2.0,86,0.00,,,0.00,,2013-10-22 12:42:00,
2013-10-22 07:52:00,45.0,41.0,29.80,West,271,0.0,2.0,86,0.00,,,0.00,,2013-10-22 12:52:00,
2013-10-22 08:12:00,45.0,41.0,29.80,West,271,0.0,1.0,86,0.00,,,0.00,,2013-10-22 13:12:00,
2013-10-22 08:21:00,45.0,41.0,29.80,West,271,0.0,2.0,87,0.00,,,0.00,,2013-10-22 13:21:00,
2013-10-22 08:42:00,45.0,41.0,29.81,West,268,0.0,3.0,87,0.00,,,0.00,,2013-10-22 13:42:00,
2013-10-22 08:53:00,46.0,43.0,29.81,West,265,0.0,3.0,88,0.00,,,0.00,,2013-10-22 13:53:00,
2013-10-22 09:12:00,47.0,43.0,29.82,West,273,1.0,5.0,86,0.00,,,0.00,,2013-10-22 14:12:00,
2013-10-22 09:21:00,49.0,44.0,29.83,West,267,0.0,5.0,82,0.00,,,0.00,,2013-10-22 14:21:00,
2013-10-22 09:42:00,50.0,43.0,29.83,West,266,0.0,5.0,78,0.00,,,0.00,,2013-10-22 14:42:00,
2013-10-22 09:52:00,54.0,45.0,29.83,West,260,1.0,3.0,72,0.00,,,0.00,,2013-10-22 14:52:00,
2013-10-22 10:12:00,55.0,44.0,29.83,WSW,248,0.0,7.0,67,0.00,,,0.00,,2013-10-22 15:12:00,
2013-10-22 10:22:00,57.0,45.0,29.84,West,272,1.0,4.0,65,0.00,,,0.00,,2013-10-22 15:22:00,
2013-10-22 10:43:00,58.0,46.0,29.83,West,265,0.0,4.0,65,0.00,,,0.00,,2013-10-22 15:43:00,
2013-10-22 10:54:00,60.0,47.0,29.83,West,268,1.0,8.0,62,0.00,,,0.00,,2013-10-22 15:54:00,
2013-10-22 11:13:00,62.0,47.0,29.83,NNW,346,1.0,5.0,58,0.00,,,0.00,,2013-10-22 16:13:00,
2013-10-22 11:23:00,63.0,46.0,29.83,West,267,0.0,3.0,54,0.00,,,0.00,,2013-10-22 16:23:00,
2013-10-22 11:43:00,65.0,46.0,29.83,NNW,333,1.0,5.0,50,0.00,,,0.00,,2013-10-22 16:43:00,
2013-10-22 11:53:00,66.0,46.0,29.82,West,267,1.0,4.0,48,0.00,,,0.00,,2013-10-22 16:53:00,
2013-10-22 12:12:00,67.0,45.0,29.82,SW,229,2.0,6.0,45,0.00,,,0.00,,2013-10-22 17:12:00,
2013-10-22 12:22:00,68.0,43.0,29.82,WSW,244,0.0,6.0,41,0.00,,,0.00,,2013-10-22 17:22:00,
2013-10-22 12:43:00,69.0,42.0,29.81,WNW,302,0.0,4.0,37,0.00,,,0.00,,2013-10-22 17:43:00,
2013-10-22 12:52:00,70.0,43.0,29.80,WSW,245,0.0,6.0,37,0.00,,,0.00,,2013-10-22 17:52:00,
2013-10-22 13:12:00,70.0,43.0,29.79,WSW,244,1.0,5.0,37,0.00,,,0.00,,2013-10-22 18:12:00,
2013-10-22 13:22:00,71.0,41.0,29.78,WSW,248,1.0,8.0,34,0.00,,,0.00,,2013-10-22 18:22:00,
2013-10-22 13:42:00,72.0,43.0,29.78,West,274,0.0,7.0,35,0.00,,,0.00,,2013-10-22 18:42:00,
2013-10-22 13:52:00,72.0,41.0,29.77,WSW,244,1.0,7.0,32,0.00,,,0.00,,2013-10-22 18:52:00,
2013-10-22 14:12:00,73.0,41.0,29.76,WSW,252,3.0,9.0,31,0.00,,,0.00,,2013-10-22 19:12:00,
2013-10-22 14:22:00,74.0,43.0,29.75,NW,311,0.0,7.0,33,0.00,,,0.00,,2013-10-22 19:22:00,
2013-10-22 14:42:00,74.0,42.0,29.75,West,272,3.0,7.0,32,0.00,,,0.00,,2013-10-22 19:42:00,
2013-10-22 14:53:00,75.0,44.0,29.74,West,275,0.0,7.0,33,0.00,,,0.00,,2013-10-22 19:53:00,
2013-10-22 15:11:00,75.0,45.0,29.73,WNW,283,3.0,8.0,35,0.00,,,0.00,,2013-10-22 20:11:00,
2013-10-22 15:22:00,75.0,44.0,29.73,SW,236,3.0,9.0,33,0.00,,,0.00,,2013-10-22 20:22:00,
2013-10-22 15:43:00,75.0,44.0,29.73,West,259,2.0,10.0,33,0.00,,,0.00,,2013-10-22 20:43:00,
2013-10-22 15:52:00,76.0,45.0,29.72,WNW,287,1.0,9.0,33,0.00,,,0.00,,2013-10-22 20:52:00,
2013-10-22 16:12:00,76.0,46.0,29.72,West,260,2.0,10.0,34,0.00,,,0.00,,2013-10-22 21:12:00,
2013-10-22 16:23:00,76.0,46.0,29.72,SSW,206,4.0,9.0,34,0.00,,,0.00,,2013-10-22 21:23:00,
2013-10-22 16:44:00,76.0,46.0,29.72,West,278,2.0,6.0,34,0.00,,,0.00,,2013-10-22 21:44:00,
2013-10-22 16:54:00,76.0,45.0,29.72,SW,236,5.0,9.0,33,0.00,,,0.00,,2013-10-22 21:54:00,
2013-10-22 17:14:00,75.0,45.0,29.71,West,281,1.0,9.0,34,0.00,,,0.00,,2013-10-22 22:14:00,
2013-10-22 17:24:00,75.0,45.0,29.70,WNW,282,3.0,8.0,35,0.00,,,0.00,,2013-10-22 22:24:00,
2013-10-22 17:44:00,75.0,45.0,29.70,WNW,283,3.0,10.0,35,0.00,,,0.00,,2013-10-22 22:44:00,
2013-10-22 17:54:00,74.0,45.0,29.70,WSW,254,4.0,8.0,35,0.00,,,0.00,,2013-10-22 22:54:00,
2013-10-22 18:12:00,74.0,45.0,29.70,WSW,252,3.0,7.0,36,0.00,,,0.00,,2013-10-22 23:12:00,
2013-10-22 18:23:00,74.0,46.0,29.70,WSW,245,2.0,8.0,37,0.00,,,0.00,,2013-10-22 23:23:00,
2013-10-22 18:43:00,73.0,46.0,29.69,SW,231,1.0,5.0,38,0.00,,,0.00,,2013-10-22 23:43:00,
2013-10-22 18:53:00,71.0,47.0,29.69,WSW,244,0.0,3.0,43,0.00,,,0.00,,2013-10-22 23:53:00,
2013-10-22 19:11:00,68.0,47.0,29.69,WSW,244,0.0,1.0,47,0.00,,,0.00,,2013-10-23 00:11:00,
2013-10-22 19:22:00,67.0,47.0,29.70,WSW,244,0.0,2.0,49,0.00,,,0.00,,2013-10-23 00:22:00,
2013-10-22 19:42:00,66.0,47.0,29.70,WSW,244,0.0,2.0,51,0.00,,,0.00,,2013-10-23 00:42:00,
2013-10-22 19:52:00,65.0,47.0,29.70,WSW,244,0.0,1.0,53,0.00,,,0.00,,2013-10-23 00:52:00,
2013-10-22 20:11:00,64.0,47.0,29.70,WSW,244,0.0,2.0,54,0.00,,,0.00,,2013-10-23 01:11:00,
2013-10-22 20:23:00,64.0,47.0,29.70,WSW,244,0.0,1.0,55,0.00,,,0.00,,2013-10-23 01:23:00,
2013-10-22 20:42:00,64.0,47.0,29.70,WSW,244,0.0,2.0,55,0.00,,,0.00,,2013-10-23 01:42:00,
2013-10-22 20:52:00,63.0,47.0,29.71,WSW,244,0.0,1.0,56,0.00,,,0.00,,2013-10-23 01:52:00,
2013-10-22 21:11:00,63.0,47.0,29.71,WSW,244,0.0,3.0,56,0.00,,,0.00,,2013-10-23 02:11:00,
2013-10-22 21:22:00,63.0,47.0,29.71,WSW,243,0.0,3.0,55,0.00,,,0.00,,2013-10-23 02:22:00,
2013-10-22 21:42:00,62.0,46.0,29.71,WSW,244,0.0,3.0,55,0.00,,,0.00,,2013-10-23 02:42:00,
2013-10-22 21:53:00,62.0,46.0,29.71,WSW,244,0.0,3.0,55,0.00,,,0.00,,2013-10-23 02:53:00,
2013-10-22 22:12:00,62.0,46.0,29.71,SW,236,1.0,4.0,55,0.00,,,0.00,,2013-10-23 03:12:00,
2013-10-22 22:22:00,62.0,46.0,29.72,SW,230,0.0,4.0,55,0.00,,,0.00,,2013-10-23 03:22:00,
2013-10-22 22:44:00,62.0,46.0,29.72,SW,234,0.0,2.0,55,0.00,,,0.00,,2013-10-23 03:44:00,
2013-10-22 22:55:00,61.0,46.0,29.72,SW,234,0.0,2.0,57,0.00,,,0.00,,2013-10-23 03:55:00,
2013-10-22 23:14:00,60.0,46.0,29.72,SW,234,0.0,1.0,59,0.00,,,0.00,,2013-10-23 04:14:00,
2013-10-22 23:24:00,59.0,46.0,29.73,SW,234,0.0,0.0,62,0.00,,,0.00,,2013-10-23 04:24:00,
2013-10-22 23:45:00,57.0,47.0,29.73,SW,234,0.0,0.0,68,0.00,,,0.00,,2013-10-23 04:45:00,
2013-10-22 23:54:00,56.0,47.0,29.73,SW,234,0.0,0.0,71,0.00,,,0.00,,2013-10-23 04:54:00,